Le Mars, IA

11:48 AM CST on December 14, 2017 (GMT -0600)
Le Mars Municipal

Weather History for KLRJ - January, 2013

Change the Weather History Date:

Tuesday, January 15, 2013

  Actual Average Record
Temperature  
Mean Temperature 26 °F -  
Max Temperature 37 °F 28 °F 60 °F (2006)
Min Temperature 15 °F 6 °F -26 °F (1972)
Degree Days  
Heating Degree Days 39    
Moisture  
Dew Point 14 °F    
Average Humidity 65    
Maximum Humidity 79    
Minimum Humidity 33    
Precipitation  
Precipitation 0.00 in - - ()
Sea Level Pressure  
Sea Level Pressure 30.14 in    
Wind  
Wind Speed 8 mph (SSW)    
Max Wind Speed 16 mph    
Max Gust Speed 23 mph    
Visibility 10 miles    
Events      
Averages and records for this station are not official NWS values.
T = Trace of Precipitation, MM = Missing Value Source: NWS Daily Summary

Daily Weather History Graph

Daily Weather History Graph

Search for Another Location

Airport or City:

Trip Planner

Search our weather history database for the weather conditions in past years. The results will help you decide how hot, cold, wet, or windy it might be!

Date:

Astronomy

Jan. 15, 2013 Rise Set
Actual Time 7:52 AM CST 5:16 PM CST
Civil Twilight 7:21 AM CST 5:47 PM CST
Nautical Twilight 6:46 AM CST 6:22 PM CST
Astronomical Twilight 6:12 AM CST 6:56 PM CST
Moon 9:51 AM CST (1/15) 10:15 PM CST (1/15)
Length of Visible Light 10h 26m
Length of Day
9h 24m
Waxing Crescent, 19% of the Moon is Illuminated
Jan 15
Waxing Crescent
Jan 18
First Quarter
Jan 26
Full
Feb 3
Last Quarter
Feb 10
New

Hourly Weather History & Observations

Time (CST) Temp. Windchill Dew Point Humidity Pressure Visibility Wind Dir Wind Speed Gust Speed Precip Events Conditions
12:15 AM 17.6 °F 8.2 °F 10.4 °F 73% 30.28 in 10.0 mi South 6.9 mph - N/A   Clear
12:35 AM 17.6 °F 7.3 °F 10.4 °F 73% 30.28 in 10.0 mi South 8.1 mph - N/A   Clear
12:55 AM 17.6 °F 7.3 °F 10.4 °F 73% 30.27 in 10.0 mi South 8.1 mph - N/A   Clear
1:15 AM 15.8 °F 4.2 °F 10.4 °F 79% 30.27 in 10.0 mi SSW 9.2 mph - N/A   Clear
1:35 AM 15.8 °F 6.1 °F 10.4 °F 79% 30.27 in 10.0 mi South 6.9 mph - N/A   Clear
1:55 AM 15.8 °F 8.6 °F 8.6 °F 73% 30.27 in 10.0 mi South 4.6 mph - N/A   Clear
2:15 AM 15.8 °F - 8.6 °F 73% 30.27 in 10.0 mi Calm Calm - N/A   Scattered Clouds
2:35 AM 15.8 °F 10.2 °F 8.6 °F 73% 30.27 in 10.0 mi South 3.5 mph - N/A   Scattered Clouds
3:15 AM 17.6 °F 8.2 °F 10.4 °F 73% 30.26 in 10.0 mi SSW 6.9 mph - N/A   Overcast
3:35 AM 17.6 °F 12.3 °F 12.2 °F 79% 30.26 in 10.0 mi SSW 3.5 mph - N/A   Overcast
3:55 AM 19.4 °F 11.5 °F 12.2 °F 74% 30.26 in 10.0 mi SSW 5.8 mph - N/A   Overcast
4:15 AM 19.4 °F 12.8 °F 12.2 °F 74% 30.25 in 10.0 mi SSW 4.6 mph - N/A   Overcast
4:35 AM 19.4 °F 10.4 °F 12.2 °F 74% 30.25 in 10.0 mi South 6.9 mph - N/A   Overcast
4:55 AM 19.4 °F 9.5 °F 12.2 °F 74% 30.24 in 10.0 mi South 8.1 mph - N/A   Overcast
5:15 AM 19.4 °F 10.4 °F 12.2 °F 74% 30.24 in 10.0 mi South 6.9 mph - N/A   Overcast
5:35 AM 19.4 °F 11.5 °F 12.2 °F 74% 30.23 in 10.0 mi South 5.8 mph - N/A   Overcast
5:55 AM 19.4 °F 9.5 °F 12.2 °F 74% 30.23 in 10.0 mi South 8.1 mph - N/A   Overcast
6:15 AM 19.4 °F 10.4 °F 12.2 °F 74% 30.23 in 10.0 mi South 6.9 mph - N/A   Overcast
6:35 AM 19.4 °F 11.5 °F 12.2 °F 74% 30.23 in 10.0 mi South 5.8 mph - N/A   Mostly Cloudy
6:55 AM 17.6 °F 8.2 °F 12.2 °F 79% 30.23 in 10.0 mi South 6.9 mph - N/A   Scattered Clouds
7:15 AM 17.6 °F 9.3 °F 12.2 °F 79% 30.23 in 10.0 mi SSW 5.8 mph - N/A   Scattered Clouds
7:35 AM 17.6 °F 9.3 °F 10.4 °F 73% 30.24 in 10.0 mi South 5.8 mph - N/A   Scattered Clouds
7:55 AM 17.6 °F 8.2 °F 10.4 °F 73% 30.23 in 10.0 mi SSW 6.9 mph - N/A   Mostly Cloudy
8:15 AM 17.6 °F 9.3 °F 10.4 °F 73% 30.23 in 10.0 mi South 5.8 mph - N/A   Scattered Clouds
8:35 AM 17.6 °F 10.7 °F 10.4 °F 73% 30.23 in 10.0 mi SSW 4.6 mph - N/A   Clear
8:55 AM 19.4 °F 12.8 °F 12.2 °F 74% 30.23 in 10.0 mi SSW 4.6 mph - N/A   Clear
9:15 AM 21.2 °F 12.6 °F 12.2 °F 68% 30.22 in 10.0 mi SSW 6.9 mph - N/A   Clear
9:35 AM 23.0 °F 12.4 °F 14.0 °F 68% 30.22 in 10.0 mi SSW 10.4 mph - N/A   Clear
9:55 AM 24.8 °F 13.4 °F 14.0 °F 64% 30.22 in 10.0 mi SSW 12.7 mph - N/A   Clear
10:15 AM 24.8 °F 14.6 °F 15.8 °F 69% 30.22 in 10.0 mi SSW 10.4 mph - N/A   Clear
10:35 AM 26.6 °F 16.2 °F 15.8 °F 64% 30.21 in 10.0 mi SSW 11.5 mph - N/A   Clear
10:55 AM 26.6 °F 16.8 °F 15.8 °F 64% 30.20 in 10.0 mi SSW 10.4 mph - N/A   Clear
11:15 AM 28.4 °F 18.5 °F 15.8 °F 59% 30.19 in 10.0 mi SSW 11.5 mph - N/A   Clear
11:35 AM 28.4 °F 17.5 °F 15.8 °F 59% 30.17 in 10.0 mi SSW 13.8 mph - N/A   Clear
11:55 AM 30.2 °F 20.2 °F 15.8 °F 55% 30.16 in 10.0 mi SSW 12.7 mph - N/A   Clear
12:15 PM 30.2 °F 19.8 °F 15.8 °F 55% 30.15 in 10.0 mi SSW 13.8 mph - N/A   Clear
12:35 PM 32.0 °F 22.1 °F 15.8 °F 51% 30.14 in 10.0 mi SSW 13.8 mph - N/A   Clear
12:55 PM 33.8 °F 24.3 °F 14.0 °F 44% 30.13 in 10.0 mi SSW 13.8 mph - N/A   Clear
1:15 PM 33.8 °F 23.9 °F 14.0 °F 44% 30.12 in 10.0 mi SW 15.0 mph - N/A   Clear
1:35 PM 35.6 °F 26.2 °F 14.0 °F 41% 30.11 in 10.0 mi SSW 15.0 mph 21.9 mph N/A   Clear
1:55 PM 35.6 °F 25.9 °F 10.4 °F 35% 30.10 in 10.0 mi SW 16.1 mph 23.0 mph N/A   Clear
2:15 PM 35.6 °F 25.9 °F 10.4 °F 35% 30.09 in 10.0 mi SW 16.1 mph 21.9 mph N/A   Clear
2:35 PM 37.4 °F 28.9 °F 10.4 °F 33% 30.09 in 10.0 mi SW 13.8 mph - N/A   Clear
2:55 PM 37.4 °F 28.9 °F 12.2 °F 36% 30.09 in 10.0 mi SW 13.8 mph - N/A   Clear
3:35 PM 35.6 °F 27.1 °F 14.0 °F 41% 30.08 in 10.0 mi SSW 12.7 mph 20.7 mph N/A   Clear
3:55 PM 35.6 °F 26.6 °F 12.2 °F 38% 30.07 in 10.0 mi SSW 13.8 mph 19.6 mph N/A   Clear
4:55 PM 33.8 °F 25.8 °F 15.8 °F 48% 30.08 in 10.0 mi SSW 10.4 mph - N/A   Clear
5:15 PM 30.2 °F 22.6 °F 15.8 °F 55% 30.07 in 10.0 mi SSW 8.1 mph - N/A   Clear
5:35 PM 28.4 °F 21.2 °F 15.8 °F 59% 30.08 in 10.0 mi SSW 6.9 mph - N/A   Clear
5:55 PM 28.4 °F 20.4 °F 15.8 °F 59% 30.07 in 10.0 mi SSW 8.1 mph - N/A   Clear
6:15 PM 28.4 °F 19.7 °F 15.8 °F 59% 30.06 in 10.0 mi SSW 9.2 mph - N/A   Clear
6:35 PM 26.6 °F 16.8 °F 15.8 °F 64% 30.04 in 10.0 mi SSW 10.4 mph - N/A   Clear
6:55 PM 26.6 °F 18.2 °F 15.8 °F 64% 30.05 in 10.0 mi SSW 8.1 mph - N/A   Clear
7:15 PM 26.6 °F 16.8 °F 15.8 °F 64% 30.04 in 10.0 mi South 10.4 mph - N/A   Clear
7:35 PM 26.6 °F 17.5 °F 17.6 °F 69% 30.04 in 10.0 mi SSW 9.2 mph - N/A   Clear
7:55 PM 26.6 °F 16.8 °F 17.6 °F 69% 30.03 in 10.0 mi SSW 10.4 mph - N/A   Clear
8:15 PM 26.6 °F 16.8 °F 17.6 °F 69% 30.02 in 10.0 mi SSW 10.4 mph - N/A   Clear
8:35 PM 26.6 °F 17.5 °F 17.6 °F 69% 30.01 in 10.0 mi SSW 9.2 mph - N/A   Clear
8:55 PM 26.6 °F 16.8 °F 17.6 °F 69% 30.00 in 10.0 mi SSW 10.4 mph - N/A   Clear
9:15 PM 24.8 °F 14.6 °F 17.6 °F 74% 29.98 in 10.0 mi SSW 10.4 mph - N/A   Clear
9:35 PM 24.8 °F 14.0 °F 17.6 °F 74% 29.97 in 10.0 mi SSW 11.5 mph - N/A   Clear
9:55 PM 24.8 °F 13.4 °F 17.6 °F 74% 29.96 in 10.0 mi SSW 12.7 mph - N/A   Clear
10:15 PM 24.8 °F 14.0 °F 17.6 °F 74% 29.96 in 10.0 mi SSW 11.5 mph - N/A   Clear
10:35 PM 24.8 °F 14.6 °F 17.6 °F 74% 29.95 in 10.0 mi SSW 10.4 mph - N/A   Clear
10:55 PM 24.8 °F 14.0 °F 15.8 °F 69% 29.94 in 10.0 mi SSW 11.5 mph - N/A   Clear
11:15 PM 24.8 °F 14.6 °F 15.8 °F 69% 29.93 in 10.0 mi SSW 10.4 mph - N/A   Clear
11:35 PM 23.0 °F 13.9 °F 15.8 °F 74% 29.93 in 10.0 mi SSW 8.1 mph - N/A   Clear